TimeCST,TemperatureF,Dew PointF,Humidity,Sea Level PressureIn,VisibilityMPH,Wind Direction,Wind SpeedMPH,Gust SpeedMPH,PrecipitationIn,Events,Conditions,WindDirDegrees,DateUTC
12:53 AM,51.1,27.0,39,29.92,10.0,SSE,23.0,28.8,N/A,,Clear,160,2012-11-08 06:53:00
1:53 AM,50.0,27.0,41,29.88,10.0,South,25.3,32.2,N/A,,Clear,170,2012-11-08 07:53:00
2:53 AM,50.0,28.0,43,29.87,10.0,SSE,24.2,34.5,N/A,,Clear,160,2012-11-08 08:53:00
3:53 AM,50.0,28.0,43,29.85,10.0,South,23.0,33.4,N/A,,Clear,170,2012-11-08 09:53:00
4:53 AM,48.0,28.0,46,29.86,10.0,South,16.1,-,N/A,,Clear,180,2012-11-08 10:53:00
5:53 AM,46.0,28.9,51,29.87,10.0,South,9.2,-,N/A,,Clear,170,2012-11-08 11:53:00
6:53 AM,44.1,28.9,55,29.88,10.0,South,3.5,-,N/A,,Clear,170,2012-11-08 12:53:00
7:53 AM,43.0,30.0,60,29.89,10.0,SSE,5.8,-,N/A,,Clear,160,2012-11-08 13:53:00
8:53 AM,50.0,30.9,48,29.89,10.0,South,11.5,-,N/A,,Clear,170,2012-11-08 14:53:00
9:53 AM,55.0,33.1,43,29.87,10.0,South,12.7,-,N/A,,Partly Cloudy,180,2012-11-08 15:53:00
10:53 AM,60.1,36.0,41,29.86,10.0,South,11.5,-,N/A,,Clear,190,2012-11-08 16:53:00
11:53 AM,63.0,37.0,38,29.84,10.0,Variable,6.9,-,N/A,,Clear,0,2012-11-08 17:53:00
12:53 PM,64.0,37.0,37,29.82,10.0,Calm,Calm,-,N/A,,Clear,0,2012-11-08 18:53:00
1:53 PM,66.0,37.9,36,29.79,10.0,SE,8.1,-,N/A,,Clear,130,2012-11-08 19:53:00
2:53 PM,66.9,37.9,34,29.79,10.0,Variable,4.6,-,N/A,,Clear,0,2012-11-08 20:53:00
3:53 PM,66.9,37.0,33,29.79,10.0,SE,8.1,-,N/A,,Clear,140,2012-11-08 21:53:00
4:53 PM,64.9,37.0,36,29.80,10.0,South,3.5,-,N/A,,Clear,170,2012-11-08 22:53:00
5:53 PM,60.1,37.0,42,29.82,10.0,North,4.6,-,N/A,,Clear,350,2012-11-08 23:53:00
6:53 PM,57.0,37.0,47,29.83,10.0,NNE,6.9,-,N/A,,Clear,30,2012-11-09 00:53:00
7:53 PM,54.0,37.0,53,29.84,10.0,NNE,6.9,-,N/A,,Clear,20,2012-11-09 01:53:00
8:53 PM,48.0,36.0,63,29.83,10.0,North,9.2,-,N/A,,Clear,350,2012-11-09 02:53:00
9:53 PM,48.0,37.0,66,29.81,10.0,North,8.1,-,N/A,,Clear,10,2012-11-09 03:53:00
10:53 PM,46.9,36.0,66,29.81,10.0,North,6.9,-,N/A,,Clear,10,2012-11-09 04:53:00
11:53 PM,46.9,37.0,68,29.79,10.0,North,8.1,-,N/A,,Clear,360,2012-11-09 05:53:00